Regional Weather Roundup
Issued by NWS

Home | Current Version | Previous Version | Text Only | Print | Product List | Glossary Off
Versions: 1 2 3 4 5 6 7 8 9 10 11 12 13 14 15 16 17 18 19 20 21 22 23 24 25 26 27 28 29 30 31 32 33 34 35 36 37 38 39 40 41 42 43 44 45 46 47 48 49 50

000
ASUS43 KLOT 132203
RWRIL

ILLINOIS REGIONAL WEATHER ROUNDUP
NATIONAL WEATHER SERVICE CHICAGO/ROMEOVILLE IL
400 PM CST SAT FEB 13 2016

NOTE: "FAIR" INDICATES FEW OR NO CLOUDS BELOW 12,000 FEET WITH NO
SIGNIFICANT WEATHER AND/OR OBSTRUCTIONS TO VISIBILITY.

* THESE STATIONS ARE NOT UNDER NWS QUALITY CONTROL. THEY ALSO MAY NOT
  REPORT WEATHER SUCH AS PRECIPITATION OR FOG.

ILZ001-002-007-009-015-016-024-132300-
NORTHWEST ILLINOIS

CITY           SKY/WX    TMP DP  RH WIND       PRES   REMARKS
MOLINE         MOSUNNY   18  -7  32 S3        30.53F
STERLING*      CLOUDY    18  -6  35 N6        30.50F WCI   9
$$

ILZ003-004-008-010-011-017-018-132300-
NORTH CENTRAL ILLINOIS

CITY           SKY/WX    TMP DP  RH WIND       PRES   REMARKS
ROCKFORD       MOSUNNY   16  -6  37 NW6       30.54F WCI   7
FREEPORT*      SUNNY     13  -6  42 N3        30.53F
DE KALB*       SUNNY     16  -4  41 NW7       30.51F WCI   6
$$

ILZ005-006-012>014-019>023-132300-
NORTHEAST ILLINOIS

CITY           SKY/WX    TMP DP  RH WIND       PRES   REMARKS
CHICAGO-OHARE  MOSUNNY   16  -5  39 NW8       30.52F WCI   5
CHICAGO-MIDWAY MOSUNNY   19  -8  30 VRB6      30.53F WCI  11
AURORA         SUNNY     17  -4  39 NW9       30.52F WCI   6
WAUKEGAN       SUNNY     14  -6  40 VRB6      30.51S WCI   5
DUPAGE AIRPORT SUNNY     16  -5  39 W7        30.51F WCI   6
WHEELING       SUNNY     16  -5  39 N6        30.53F WCI   7
NORTHERLY ISL    N/A     18  -8  31 W5          N/A  WCI  11
$$

LMZ740>746-132300-
SOUTHERN LAKE MICHIGAN

STATION/POSITION SKY/WX   TEMP    WIND        PRES    VSBY  WAVE
                          AIR SEA DIR/SP/G                  HT/PER
                          (F)     (DEG/KT/KT) (MB)    (MI)  (FT/S)
HARRISON CRIB              16     330/  7/  9   N/A
BURNHAM HARBOR             18     270/  6/ 10   N/A
CALUMET HARBOR             17     270/  5/  9 1033.1F
BURNS HARBOR               14     330/  6/  9 1034.5F
MICHIGAN CITY              14     300/  8/ 14   N/A
$$

ILZ025>027-034>036-040-047-049-050-058-095>099-132300-
WEST-CENTRAL ILLINOIS

CITY           SKY/WX    TMP DP  RH WIND       PRES   REMARKS
QUINCY         CLOUDY    17  -2  43 N5        30.53F WCI  10
MACOMB*        CLOUDY    19  -3  37 CALM      30.56S
$$

ILZ028>032-037-038-041>044-048-051>054-059>061-132300-
CENTRAL ILLINOIS

CITY           SKY/WX    TMP DP  RH WIND       PRES   REMARKS
BLOOMINGTON    SUNNY     19  -3  38 N5        30.53F WCI  12
DECATUR        MOSUNNY   21  -1  38 N5        30.54F WCI  15
PEORIA         CLOUDY    20  -6  31 CALM      30.54F
LINCOLN*       MOSUNNY   20  -1  40 NE3       30.55S
SPRINGFIELD    CLOUDY    21   0  39 CALM      30.55F
TAYLORVILLE    NOT AVBL
$$

ILZ033-039-045-046-055>057-062-063-132300-
EAST-CENTRAL ILLINOIS

CITY           SKY/WX    TMP DP  RH WIND       PRES   REMARKS
CHAMPAIGN      CLOUDY    19   0  43 NW9       30.54S WCI   8
MATTOON        MOSUNNY   19   0  43 N8        30.54S WCI   9
$$

ILZ079-100>102-132300-
SOUTHWEST ILLINOIS

CITY           SKY/WX    TMP DP  RH WIND       PRES   REMARKS
ALTON          CLOUDY    19   0  42 NE5       30.55F WCI  13
BELLEVILLE     CLOUDY    23   1  38 E8        30.54F WCI  14
CAHOKIA*       CLOUDY    24  -2  32 N3        30.55F
SPARTA*        PTSUNNY   22   2  42 NE3       30.55F
$$

ILZ064>066-069>071-074>076-080>082-084>086-088>090-092>094-132300-
SOUTH-CENTRAL ILLINOIS

CITY           SKY/WX    TMP DP  RH WIND       PRES   REMARKS
CARBONDALE     CLOUDY    24   0  35 NE3       30.55F
MARION         PTSUNNY   25   3  39 N6        30.55F WCI  18
MT. VERNON     CLOUDY    23   3  42 CALM      30.55S
CENTRALIA*     CLOUDY    23   4  44 N3        30.55R
SALEM*         MOSUNNY   24   3  40 N5        30.54S WCI  18
$$

ILZ067-068-072-073-078-083-087-091-132300-
SOUTHEAST ILLINOIS

CITY           SKY/WX    TMP DP  RH WIND       PRES   REMARKS
LAWRENCEVILLE  SUNNY     22  -3  33 N10       30.56F WCI  11
HARRISBURG*    CLOUDY    23   7  50 NE7       30.56F WCI  15
$$

ABBREVIATIONS USED IN REMARKS
   TC - TEMPERATURE IN CELSIUS
  WCI - WIND CHILL INDEX
   HX - HEAT INDEX
  VSB - VISIBILITY
$$




USA.gov is the U.S. government's official web portal to all federal, state and local government web resources and services.